Overview Statistics Trail Chart Weather Telemetry Raw packets
 

This is the latest recevied weather packets stored in our database for station/object KI6SYE. If no packets are shown the sender has not sent any weather packets the latest 10 day(s).

<< 3 4 5 6 7 8 9 >>
Time Temp. Humidity Pressure Rain* Wind** Luminosity Snow
1788650816 25° C 75% 1012 hPa 0 mm - 230 W/m² -
1788650512 24.44° C 77% 1011.9 hPa 0 mm - 343 W/m² -
1788650207 24.44° C 76% 1011.9 hPa 0 mm - 271 W/m² -
1788649903 25.56° C 72% 1011.9 hPa 0 mm - 425 W/m² -
1788649599 24.44° C 74% 1011.7 hPa 0 mm - 519 W/m² -
1788649297 24.44° C 75% 1012.1 hPa 0 mm - 377 W/m² -
1788648991 24.44° C 76% 1012 hPa 0 mm - 360 W/m² -
1788648686 24.44° C 75% 1012 hPa 0 mm - 403 W/m² -
1788648380 23.89° C 74% 1012 hPa 0 mm - 257 W/m² -
1788648079 23.89° C 76% 1012.1 hPa 0 mm - 278 W/m² -
1788647776 23.89° C 76% 1012.2 hPa 0 mm - 272 W/m² -
1788647473 23.89° C 75% 1012.5 hPa 0 mm - 280 W/m² -
1788647172 24.44° C 74% 1012.2 hPa 0 mm - 289 W/m² -
1788646867 23.89° C 75% 1012.3 hPa 0 mm - 294 W/m² -
1788646558 24.44° C 75% 1012.4 hPa 0 mm - 294 W/m² -
1788646254 25° C 73% 1012.5 hPa 0 mm - 298 W/m² -
1788645949 25° C 74% 1012.5 hPa 0 mm - 626 W/m² -
1788645646 23.89° C 77% 1012.5 hPa 0 mm - 592 W/m² -
1788645344 24.44° C 77% 1012.7 hPa 0 mm - 593 W/m² -
1788645041 24.44° C 75% 1012.6 hPa 0 mm - 594 W/m² -
1788644736 23.89° C 77% 1012.6 hPa 0 mm - 599 W/m² -
1788644432 24.44° C 76% 1012.9 hPa 0 mm - 608 W/m² -
1788644127 23.89° C 77% 1012.9 hPa 0 mm - 617 W/m² -
1788643822 23.89° C 78% 1013 hPa 0 mm - 625 W/m² -
1788643517 23.89° C 79% 1013.1 hPa 0 mm - 639 W/m² -

* Rain latest hour (hover to see other rain measurements)
** Current wind speed in m/s (hover to see current wind gust speed)